Location: Morhain
(42.6441°N, 93.6763°W)
Time: 10:47:33
(UTC+00:00)

Daily predictions for brighter satellites

Satellite Brightness Start Highest point End
(mag) Time Altitude Azimuth Time Altitude Azimuth Time Altitude Azimuth
BREEZE M DEB (TANK) 3.8 12:03:10 22° NW 12:04:14 26° N 12:06:21 10° NE
Cosmos 2369 Rocket 2.5 12:02:15 10° SW 12:07:30 41° WNW 12:12:47 10° NNE
Cosmos 1408 Rocket 3.5 12:04:41 10° S 12:08:59 84° E 12:13:19 10° N
USA 238 DEB 4.5 12:10:12 18° W 12:13:55 30° NW 12:19:53 10° NNE
USA 238 4.5 12:10:15 18° W 12:14:01 30° NW 12:20:00 10° NNE
Cosmos 2279 Rocket 4.1 12:08:32 10° NNW 12:14:32 54° W 12:20:31 10° SSW
BREEZE-M DEB 4.0 12:12:06 10° SW 12:15:03 57° SE 12:23:26 10° ENE
USA 215 3.3 12:09:57 10° SE 12:16:28 74° SW 12:22:26 13° NW
Cosmos 1743 Rocket 4.4 12:12:18 10° S 12:16:34 53° E 12:20:50 10° NNE
H-2A R/B 4.4 12:13:39 10° NE 12:17:43 25° E 12:21:44 10° SSE
Nadezhda 4 Rocket 4.0 12:16:52 10° S 12:23:01 88° W 12:29:17 10° N
Cosmos 783 Rocket 4.5 12:20:18 10° NNW 12:25:32 86° WSW 12:30:44 10° SSE
Cosmos 1503 Rocket 4.2 12:20:26 10° SW 12:25:32 50° WNW 12:30:44 10° N
Cosmos 1515 Rocket 3.5 12:22:34 10° NNW 12:26:56 71° W 12:31:14 10° S
DMSP B5D2-2 4.0 12:22:21 10° S 12:27:33 69° WSW 12:32:45 10° NNW
Cosmos 1656 Rocket 4.1 12:24:31 10° SW 12:29:30 37° WNW 12:34:32 10° N
SL-8 R/B 3.7 12:26:14 15° WNW 12:30:13 82° NNE 12:35:00 10° ESE
Meteor 2-15 Rocket 4.4 12:26:12 10° NNW 12:32:17 77° W 12:38:20 10° S
SL-27 R/B 2.5 12:29:03 10° NNW 12:32:39 84° ENE 12:36:11 10° SSE
SJ 16-02 1.4 12:28:45 10° SSW 12:33:08 82° ESE 12:37:32 10° NNE
CZ-2C R/B 3.7 12:29:41 10° SSW 12:34:12 26° W 12:38:41 10° NW
Cosmos 1340 Rocket 2.8 12:31:47 10° S 12:35:43 86° E 12:39:43 10° N
Cosmos 1943 Rocket 3.8 12:34:39 12° WNW 12:36:29 14° NW 12:39:16 10° NNW
Cosmos 1777 Rocket 4.0 12:31:35 10° SSW 12:36:48 86° WNW 12:42:04 10° NNE
Cosmos 1092 Rocket 4.4 12:31:26 10° S 12:37:36 71° E 12:43:53 10° NNE
Cosmos 2227 Rocket 4.5 12:35:38 10° N 12:39:25 18° NE 12:43:11 10° E
Cosmos 1939 Rocket 2.8 12:41:00 10° N 12:44:55 64° WNW 12:48:44 10° SSW
Cosmos 1500 Rocket 3.6 12:40:54 10° SSW 12:45:20 70° W 12:49:49 10° N
NOAA 6 4.1 12:40:27 10° NNE 12:45:36 85° ESE 12:50:43 10° SSW
Cosmos 773 Rocket 4.0 12:41:20 10° NNW 12:46:30 63° WSW 12:51:35 10° S
EP 2 4.5 12:44:01 10° SW 12:47:09 74° NW 12:50:08 10° NNE
CORIOLIS 4.4 12:42:06 10° NNE 12:47:35 78° ESE 12:53:01 10° S
Meteor 1-27 Rocket 3.8 12:45:46 10° NNW 12:51:18 60° W 12:56:56 10° S
Envisat 4.5 12:53:12 10° NNW 12:56:00 15° WNW 12:58:48 10° W
Cosmos 1500 4.0 12:52:32 10° S 12:56:16 56° E 13:00:01 10° NNE
Cosmos 1805 Rocket 3.6 12:52:37 10° S 12:57:01 89° W 13:01:25 10° N
Sich 1 3.3 12:53:53 10° S 12:58:09 73° E 13:02:25 10° NNE
NOAA 12 4.3 12:53:45 10° N 12:58:48 48° WNW 13:03:48 10° SW
H-2A R/B 2.5 12:55:12 10° S 12:59:14 44° W 13:03:24 10° NNW
NOSS 3-1 (A) 4.2 22:57:37 10° NNW 23:05:02 59° NE 23:13:39 10° SE
NOSS 3-1 (C) 4.2 22:58:03 10° NW 23:05:42 85° NE 23:14:34 10° SE
Cosmos 1464 Rocket 4.2 23:00:43 10° S 23:07:06 88° W 23:13:31 10° N
Cosmos 44 3.2 23:04:30 10° NW 23:09:16 86° WSW 23:13:43 10° SSE
CZ-2C R/B 4.1 23:07:22 10° NE 23:10:37 16° E 23:13:49 10° SE
Cosmos 468 Rocket 4.1 23:07:09 10° S 23:12:11 60° ESE 23:17:18 10° NNE
CZ-2C R/B 2.9 23:09:04 10° SSE 23:14:01 83° ENE 23:18:49 10° N
Cosmos 1898 Rocket 3.7 23:11:27 10° N 23:16:32 47° ENE 23:21:32 10° SE
Cosmos 2084 3.6 23:13:17 10° NNW 23:17:32 54° NE 23:21:56 10° SE
Nadezhda 4 Rocket 4.0 23:11:19 10° N 23:17:41 78° E 23:24:00 10° S
SL-08 R/B 3.9 23:17:53 10° N 23:22:32 58° WNW 23:27:04 10° SSW
AQUARIUS 4.4 23:18:25 10° SE 23:22:43 46° ENE 23:27:01 10° N
CZ-4C R/B 3.6 23:19:40 10° NNW 23:25:53 32° NE 23:33:00 10° E
Cosmos 1939 Rocket 2.8 23:27:01 10° SSE 23:31:07 75° ENE 23:35:13 10° N
Cosmos 1092 Rocket 4.1 23:26:29 10° N 23:32:46 60° E 23:38:59 10° SSE
Cosmos 1812 4.0 23:31:00 10° SE 23:33:57 21° E 23:36:51 10° NE
H-2A R/B 2.4 23:31:23 10° SE 23:36:11 40° ENE 23:40:54 10° N
USA 276 2.1 23:34:22 10° WNW 23:37:30 83° SSW 23:40:37 10° SE
COSMO-SKYMED 1 3.6 23:34:31 10° NE 23:38:08 25° E 23:41:42 10° SSE
Cosmos 1656 4.3 23:32:56 10° NNW 23:38:25 63° WSW 23:43:56 10° S
FengYun 1-2 T 4.4 23:36:08 10° S 23:41:43 79° WSW 23:47:18 10° NNW
Cosmos 1763 Rocket 3.9 23:41:34 10° SSW 23:46:35 64° WNW 23:51:40 10° NNE
Cosmos 2322 Rocket 4.0 23:45:38 10° NNE 23:47:25 11° NE 23:47:27 11° NE
Cosmos 1633 Rocket 4.0 23:44:34 10° NNE 23:48:11 25° ENE 23:51:49 10° SE
Cosmos 1697 Rocket 2.6 23:45:25 10° NNW 23:51:04 83° ENE 23:56:41 10° SSE
Cosmos 1602 3.6 23:47:56 10° N 23:51:48 79° E 23:55:40 10° S
Cosmos 841 Rocket 3.5 23:47:12 10° S 23:52:17 63° ESE 23:57:23 10° NNE
Cosmos 1627 Rocket 4.4 23:47:30 10° N 23:53:42 74° E 23:59:47 10° SSE
